Weather History for KHGR - July, 2012

Change the Weather History Date:

Thursday, July 12, 2012

  Actual Average Record
Temperature  
Mean Temperature 76 °F -  
Max Temperature 87 °F 82 °F 93 °F (2011)
Min Temperature 66 °F 62 °F 51 °F (2002)
Cooling Degree Days 11    
Growing Degree Days 26 (Base 50)    
Moisture  
Dew Point 60 °F    
Average Humidity 58    
Maximum Humidity 90    
Minimum Humidity 38    
Precipitation  
Precipitation 0.00 in - - ()
Sea Level Pressure  
Sea Level Pressure 30.20 in    
Wind  
Wind Speed 3 mph (SSE)    
Max Wind Speed 13 mph    
Max Gust Speed -    
Visibility 10 miles    
Events      
Averages and records for this station are not official NWS values.
T = Trace of Precipitation, MM = Missing Value Source: NWS Daily Summary

Daily Weather History Graph

Daily Weather History Graph

Search for Another Location

Airport or City:

Trip Planner

Search our weather history database for the weather conditions in past years. The results will help you decide how hot, cold, wet, or windy it might be!

Date:

Astronomy

Jul. 12, 2012 Rise Set
Actual Time 5:53 AM EDT 8:39 PM EDT
Civil Twilight 5:21 AM EDT 9:10 PM EDT
Nautical Twilight 4:41 AM EDT 9:50 PM EDT
Astronomical Twilight 3:56 AM EDT 10:36 PM EDT
Moon 12:56 AM EDT (7/12) 3:10 PM EDT (7/12)
Length of Visible Light 15h 49m
Length of Day
14h 45m
Waning Crescent, 35% of the Moon is Illuminated
Jul 12
Waning Crescent
Jul 19
New
Jul 26
First Quarter
Aug 1
Full
Aug 9
Last Quarter

Hourly Weather History & Observations

Time (EDT) Temp. Heat Index Dew Point Humidity Pressure Visibility Wind Dir Wind Speed Gust Speed Precip Events Conditions
12:53 AM 73.0 °F - 62.1 °F 68% 30.19 in 10.0 mi Calm Calm - N/A   Clear
1:53 AM 69.1 °F - 66.0 °F 90% 30.19 in 5.0 mi Calm Calm - N/A   Clear
2:53 AM 72.0 °F - 62.1 °F 71% 30.19 in 10.0 mi Calm Calm - N/A   Clear
3:53 AM 70.0 °F - 61.0 °F 73% 30.19 in 10.0 mi SE 3.5 mph - N/A   Clear
4:53 AM 66.9 °F - 62.1 °F 84% 30.20 in 10.0 mi Calm Calm - N/A   Clear
5:53 AM 68.0 °F - 61.0 °F 78% 30.21 in 10.0 mi Calm Calm - N/A   Clear
6:53 AM 66.9 °F - 62.1 °F 84% 30.22 in 9.0 mi Calm Calm - N/A   Clear
7:53 AM 71.1 °F - 62.1 °F 73% 30.23 in 10.0 mi Calm Calm - N/A   Clear
8:53 AM 73.9 °F - 62.1 °F 66% 30.23 in 10.0 mi Variable 3.5 mph - N/A   Clear
9:53 AM 77.0 °F - 62.1 °F 60% 30.23 in 10.0 mi Calm Calm - N/A   Clear
10:53 AM 80.1 °F 81.2 °F 62.1 °F 54% 30.22 in 10.0 mi Calm Calm - N/A   Clear
11:53 AM 82.9 °F 82.8 °F 59.0 °F 44% 30.22 in 10.0 mi Variable 6.9 mph - N/A   Clear
12:53 PM 84.9 °F 84.2 °F 57.9 °F 40% 30.21 in 10.0 mi ESE 9.2 mph - N/A   Scattered Clouds
1:53 PM 84.9 °F 84.2 °F 57.9 °F 40% 30.21 in 10.0 mi SSW 8.1 mph - N/A   Partly Cloudy
2:53 PM 86.0 °F 85.4 °F 59.0 °F 40% 30.20 in 10.0 mi SSE 12.7 mph - N/A   Clear
3:53 PM 84.9 °F 83.9 °F 57.0 °F 38% 30.19 in 10.0 mi SSE 12.7 mph - N/A   Clear
4:53 PM 84.0 °F 83.3 °F 57.0 °F 40% 30.19 in 10.0 mi South 10.4 mph - N/A   Clear
5:53 PM 82.9 °F 82.8 °F 59.0 °F 44% 30.18 in 10.0 mi South 8.1 mph - N/A   Clear
6:53 PM 82.9 °F 82.6 °F 57.9 °F 42% 30.19 in 10.0 mi SSE 9.2 mph - N/A   Clear
7:53 PM 81.0 °F 81.1 °F 57.9 °F 45% 30.19 in 10.0 mi South 6.9 mph - N/A   Clear
8:53 PM 79.0 °F - 59.0 °F 50% 30.20 in 10.0 mi SSE 4.6 mph - N/A   Clear
9:53 PM 78.1 °F - 60.1 °F 54% 30.21 in 10.0 mi SSE 5.8 mph - N/A   Clear
10:53 PM 77.0 °F - 59.0 °F 54% 30.21 in 10.0 mi SSE 5.8 mph - N/A   Clear
11:53 PM 75.9 °F - 60.1 °F 58% 30.21 in 10.0 mi SSE 6.9 mph - N/A   Clear